www.pogodaiklimat.ru
Время
и дата
08:53 26.05
09:53 26.05
10:53 26.05
11:53 26.05
12:53 26.05
13:53 26.05
14:53 26.05
15:53 26.05
16:53 26.05
17:53 26.05
18:53 26.05
19:53 26.05
20:53 26.05
21:53 26.05
22:53 26.05
23:53 26.05
00:53 27.05
01:53 27.05
02:53 27.05
03:53 27.05
04:53 27.05
05:53 27.05
06:53 27.05
07:53 27.05
08:53 27.05
09:53 27.05
10:53 27.05
11:53 27.05
12:53 27.05
13:53 27.05
14:53 27.05
15:53 27.05
16:53 27.05
17:53 27.05
18:53 27.05
19:53 27.05
20:53 27.05
21:53 27.05
22:53 27.05
23:53 27.05
00:53 28.05
01:53 28.05
02:53 28.05
03:53 28.05
04:53 28.05
05:53 28.05
06:07 28.05
06:53 28.05
Ветер
(напр.,м/с)
Видим. Явления Облачность Т
(С)
Тd
(С)
f
(%)
Тe
(С)
Тes
(С)
Комфортность P
(гПа)
Po
(гПа)
Тmin
(С)
Tmax
(С)
R
(мм)
R24
(мм)
S
(см)
СВ 3 16 км 8/2 900 m
[Ac]
+13.9 +7.2 64 +13 +15 1020.6 1019.8
СВ 4 16 км 5/2 1080 m
[Ac Ci]
+15.6 +6.1 53 +15 +20 1020.6 1019.8 +10.0 +15.6
нст 3 16 км 5/2 1170 m
[Ac Ci]
+17.2 +5.6 46 +17 +25 1020.3 1019.5
СВ 2 16 км 5/2 1200 m
[Ac Ci]
+18.3 +5.0 41 +19 +30 1020.2 1019.5
С 3 16 км 8/2 1200 m
[Ac Ci]
+19.4 +5.0 39 +20 +28 1019.7 1019.1
С 3 16 км 8/2 1200 m
[Ac Ci]
+20.6 +5.6 37 +22 +29 комфорт 1019.5 1018.8
С 3 16 км 5/2 1200 m
[Ac Ci]
+21.7 +6.7 38 +22 +31 комфорт 1019.1 1018.5
С 3 16 км 5/2 1200 m
[Ac Ci]
+22.2 +6.7 37 +23 +30 комфорт 1018.7 1018.1 +15.6 +22.2
СЗ 3 16 км 5/5 1800 m
[Ac]
+22.2 +7.2 38 +23 +27 комфорт 1018.5 1017.8
СЗ 4 16 км 5/5 1800 m
[Ac]
+22.2 +7.2 38 +23 +25 комфорт 1018.3 1017.4
СЗ 6 16 км 5/2 1800 m
[Ac]
+18.3 +9.4 56 +18 +18 1018.9 1018.1
С 4 16 км 2/0 2850 m
[Ac]
+16.1 +8.9 62 +15 +16 1019.4 1018.8
СЗ 4 16 км 2/0 2850 m
[Ac]
+14.4 +8.3 67 +13 +13 1020.1 1019.5
З 3 16 км ясно +13.9 +8.9 72 +13 +13 1020.3 1019.5 +13.9 +22.8
СЗ 3 16 км ясно +13.3 +8.3 72 +12 +12 1020.5 1019.8
штиль 0 16 км ясно +12.8 +8.3 74 +12 +12 1020.5 1019.8
С 2 16 км ясно +12.8 +7.8 72 +12 +12 1020.8 1020.2
штиль 0 16 км ясно +12.2 +7.8 74 +12 +12 1020.7 1020.2
штиль 0 16 км ясно +11.7 +7.8 77 +11 +11 1020.8 1020.2
З 2 16 км ясно +11.1 +7.8 80 +10 +10 1020.8 1020.2 +11.1 +14.4
С 2 16 км 5/0 6900 m
[Ci]
+11.1 +8.3 83 +10 +10 1021.1 1020.5
СЗ 3 16 км 5/0 4500 m
[Ac Ci]
+12.2 +8.3 77 +11 +11 1021.3 1020.5
З 2 16 км 8/2 900 m
[Ac Ci]
+13.3 +8.3 72 +13 +13 1021.6 1020.8
нст 2 16 км 8/2 900 m
[Ac Ci]
+15.0 +8.3 64 +15 +17 1021.7 1021.2
З 4 16 км 8/2 900 m
[Ci]
+15.6 +8.3 62 +15 +18 1021.6 1020.8
СЗ 4 16 км 8/2 900 m
[Ci]
+16.7 +7.8 56 +16 +21 1021.5 1020.8 +10.6 +16.7
СЗ 2 16 км 8/2 900 m
[Ci]
+17.8 +8.3 54 +18 +28 1021.1 1020.5
штиль 0 16 км 8/2 900 m
[Ci]
+18.3 +8.3 52 +18 +34 опасность
простуды
1020.4 1019.8
нст 2 16 км 8/2 900 m
[Ci]
+20.0 +8.3 47 +22 +34 комфорт 1019.8 1019.1
СЗ 3 16 км 8/2 900 m
[Ci]
+21.7 +7.2 39 +23 +33 комфорт 1019.1 1018.5
СЗ 4 16 км 8/2 1050 m
[Ci]
+23.3 +8.3 38 +24 +32 комфорт 1018.5 1017.8
З 4 16 км 8/2 1050 m
[Ci]
+22.8 +8.9 41 +24 +30 комфорт 1018.0 1017.1 +16.7 +23.9
З 3 16 км 8/0 7500 m
[Ci]
+22.8 +8.9 41 +24 +30 комфорт 1017.2 1016.4
СЗ 3 16 км 8/0 6000 m
[Ac Ci]
+21.1 +10.0 49 +23 +25 комфорт 1017.1 1016.4
З 3 16 км 8/0 6000 m
[Ac Ci]
+21.1 +10.0 49 +23 +24 комфорт 1017.1 1016.4
СЗ 3 16 км 5/0 5400 m
[Ac Ci]
+19.4 +10.0 55 +21 +21 комфорт 1017.1 1016.4
СЗ 4 16 км 5/0 5400 m
[Ac Ci]
+18.3 +10.0 58 +18 +18 1017.6 1016.8
С 2 16 км 8/0 6000 m
[Ac Ci]
+16.7 +10.0 65 +17 +17 1017.8 1017.1 +16.7 +23.3
СЗ 3 16 км 8/0 6000 m
[Ac Ci]
+15.6 +9.4 67 +15 +15 1017.6 1016.8
СЗ 2 16 км 5/0 6000 m
[Ac Ci]
+15.0 +9.4 69 +15 +15 1017.5 1016.8
штиль 0 16 км 8/0 6000 m
[Ac Ci]
+15.0 +9.4 69 +15 +15 1017.7 1017.1
СЗ 2 16 км 5/0 6000 m
[Ac Ci]
+13.9 +8.3 69 +13 +13 1017.9 1017.1
С 2 16 км 5/0 6000 m
[Ac Ci]
+13.9 +7.8 67 +13 +13 1018.3 1017.8
штиль 0 16 км 10/10 630 м +13.9 +7.8 67 +14 +14 1018.8 1018.1 +13.3 +16.7
СВ 2 16 км 10/10 630 м +13.9 +7.8 67 +13 +13 1019.0 1018.5
СВ 2 14 км слабая морось 10/10 660 m
[St]
+13.9 +8.3 69 +13 +13 1019.5 1018.8
штиль 0 16 км слабая морось 10/10 600 m
[St]
+13.3 +8.3 72 +13 +13 1019.1
штиль 0 16 км слабая морось 10/10 570 m
[St]
+13.3 +8.9 75 +13 +13 1020.0 1019.5
Местоположение метеостанции Portland International Airport: широта 45.5908 долгота -122.6003 высота над уровнем моря 6 м.
В архиве по умолчанию представлена погода в Портленде за последние 1-2 суток. Обновление информации о фактической погоде в базе происходит ежечасно! Архивные данные за месяц целиком и за предыдущие месяцы Вы можете получить, выбрав интересующий диапазон дат из раскрывающегося списка и нажав кнопку "Ввод!".
Внимание! Архив погоды МЕТАР в базе сайта по станциям, не включенным в климатический монитор, хранится не более 60 дней. Нет смысла пытаться выбрать более раннюю дату.
*Определитесь, кто Вы:
Внимание! Время в таблицах - местное (без учета летнего времени). Для получения всемирного времени необходимо вычесть поправку, которая равна -8 ч.
Смотрите также архив погоды в соседних городах и на ближайших метеорологических станциях:
Партнеры нашего сайта:      
Пояснения к столбцам:
  • Ветер - указаны скорость ветра в м/с - средняя за 10 мин, порывы в срок и между сроками (в фигурных скобках) и направление, откуда дует ветер: С - северный,
  • СВ - северо-восточный, В - восточный, ЮВ - юго-восточный, Ю - южный, ЮЗ - юго-западный, З - западный, СЗ - северо-западный.
  • Видимость - горизонтальная дальность видимости в метрах или километрах. При видимости от 1 до 10 км при отсутствии осадков обычно наблюдается дымка, при ухудшении видимости до 1 км и менее - туман. В сухую погоду видимость может ухудшаться дымом, пылью или мглою.
  • Явления - указаны атмосферные явления, наблюдавшиеся в срок или в последний час перед сроком; фигурными скобками обозначены явления, наблюдавшиеся между сроками (за 1-3 часа до срока); квадратными скобками обозначены град или гололедные отложения с указанием их диаметра в мм.
  • Облачность - указаны через наклонную черту общая и нижняя облачность в баллах и высота нижней границы облаков в метрах; квадратными скобками обозначены формы облаков: Ci - перистые, Cs - перисто-слоистые, Cc - перисто-кучевые, Ac - высококучевые, As - высокослоистые, Sc - слоисто-кучевые, Ns - слоисто-дождевые, Cu - кучевые, Cb - кучево-дождевые. Подробнее классификацию облаков см. в Атласе облаков (PDF).
  • T - Температура воздуха - температура, измеренная на высоте 2 м над землей.
  • Td - Температура точки росы - температура, при понижении до которой содержащийся в воздухе водяной пар достигнет насыщения.
  • f - Относительная влажность воздуха - влажноcть воздуха, измеренная на высоте 2 м над землей.
  • Te - Эффективная температура - температура, которую ощущает одетый по сезону человек в тени. Характеристика душности погоды. При расчете учитывается влияние влажности воздуха и скорости ветра на теплоощущения человека.
  • Tes - Эффективная температура на солнце - температура, которую ощущает человек, с поправкой на солнечный нагрев. Характеристика знойности погоды. Зависит от высоты солнца над горизонтом, облачности и скорости ветра. Ночью, в пасмурную погоду, а также при ветре 12 м/с и более поправка равна нулю.
  • P - Атмосферное давление - приведенное к уровню моря атмосферное давление.
  • Po - Атмосферное давление - измеренное на уровне метеостанции атмосферное давление.
  • Tmin - Минимальная температура - минимум температуры воздуха на высоте 2 м над землей.
  • Tmax - Максимальная температура - максимум температуры воздуха на высоте 2 м над землей.
  • R - Количество осадков - Количество выпавших осадков за период времени, мм. При наведении курсора мыши на число - период времени, за который выпало указанное количество осадков.
  • R24 - Количество осадков - Количество выпавших осадков за 24 часа, мм.
  • S - Снежный покров - Высота снежного покрова, см. При наведении курсора мыши на число - состояние снежного покрова и степень покрытия местности в баллах.